Weather in Penza

Russia / Republic of Bashkortostan     54°26′45″N   55°19′01″E
temp.,
°C
wind,
m/s
gust,
m/s
humid.,
%
clouds,
%
prec.,
mm/h
press.,
hPa
HPBL,
m
28 february, sun
sun2823:00−6sse61195100 2.7 1001438
02:00−5se5996100 1.3 999317
05:00−5se4896100 3.0 999290
08:00−5ese3597100 1.1 999165
11:00−5ne349699 1.5 999178
14:00−5n469596 0.4 1000326
17:00−7nnw589496 0.6 1002314
20:00−9nw599482 0.1 1005278
1 march, mon
mon123:00−11nw499578 0.2 1008195
02:00−12nw489495 0.1 1010237
05:00−13nw479595 0.4 1012251
08:00−14nw479598 0.2 1013253
11:00−13nw469393 0.3 1015356
14:00−13nw459198 0.1 1016412
17:00−13nw459199 0.1 1018420
20:00−18nw239799 0.0 101822
2 march, tue
tue223:00−21w239982 0.1 102020
02:00−22wsw239829 0.0 101920
05:00−23ssw239736 0.0 101920
08:00−24ssw34970 0.0 101756
11:00−19s6109444 0.0 1015261
14:00−15s71293100 0.0 1012416
17:00−12ssw81494100 0.3 1010535
20:00−12ssw81494100 1.4 1008619
3 march, wed
wed323:00−11s81494100 2.4 1006585
02:00−8s71495100 1.3 1004591
05:00−7s61295100 2.3 1001474
08:00−5ssw51196100 0.8 999477
11:00−4ssw5996100 1.4 999467
14:00−2sw469499 0.3 998463
17:00−2wnw579399 0.6 999473
20:00−5wnw51193100 0.1 999494
4 march, thu
thu423:00−7nw61292100 0.3 1002492
02:00−9wnw4109597 0.0 1003203
05:00−8nw5109497 0.1 1005331
08:00−13wnw6119499 0.1 1007248
11:00−11nw6109393 0.1 1009382
14:00−8wnw588994 0.0 1010589
17:00−8wnw579097 0.1 1011506
20:00−13w469432 0.0 101390